Location: Alice Springs
(23.6980°S, 133.8807°E)
Time: 12:23:57
(UTC+09:30)

Envisat - Visible Passes

Search period start: 17 June 2021 00:00
Search period end: 27 June 2021 00:00
Orbit: 764 x 766 km, 98.1° (Epoch: 16 June)

Date Brightness Start Highest point End Pass type
(mag) Time Alt. Az. Time Alt. Az. Time Alt. Az.
17 Jun 5.7 04:10:45 10° E 04:13:09 13° ESE 04:13:46 13° ESE visible
17 Jun 3.2 05:46:50 10° N 05:51:41 46° W 05:53:58 28° SW visible
18 Jun 3.2 05:09:52 10° NNE 05:14:54 67° ESE 05:16:38 40° S visible
18 Jun 5.8 19:09:46 10° SW 19:11:46 12° WSW 19:13:45 10° W visible
19 Jun 4.9 04:34:07 10° NE 04:38:16 26° ESE 04:39:19 24° SE visible
19 Jun 4.1 06:13:05 10° NNW 06:17:06 24° W 06:19:30 17° WSW visible
19 Jun 4.8 18:30:48 10° SSW 18:35:16 31° WSW 18:39:43 10° NW visible
20 Jun 2.9 05:35:12 10° N 05:40:12 62° WNW 05:42:10 36° SW visible
21 Jun 3.7 04:58:35 10° NNE 05:03:28 50° ESE 05:04:51 39° SSE visible
21 Jun 4.8 06:40:51 10° WNW 06:42:35 12° W 06:44:20 10° WSW visible
21 Jun 5.7 18:57:17 10° SSW 19:00:25 16° WSW 19:03:32 10° WNW visible
22 Jun 5.2 04:23:18 10° ENE 04:26:54 20° ESE 04:27:32 19° ESE visible
22 Jun 3.7 06:01:08 10° NNW 06:05:36 31° W 06:07:44 23° WSW visible
22 Jun 4.4 18:19:05 10° S 18:23:52 41° WSW 18:28:37 10° NW visible
23 Jun 2.8 05:23:40 10° N 05:28:45 84° WNW 05:30:25 44° SSW visible
24 Jun 4.3 04:47:24 10° NE 04:52:03 37° ESE 04:53:05 34° SE visible
24 Jun 4.5 06:27:59 10° NW 06:31:03 16° W 06:33:17 13° WSW visible
24 Jun 5.4 18:45:12 10° SSW 18:49:03 22° WSW 18:52:52 10° WNW visible
25 Jun 5.6 04:12:46 10° ENE 04:15:31 15° ESE 04:15:46 15° ESE visible
25 Jun 3.4 05:49:19 10° N 05:54:07 42° W 05:55:58 30° SW visible
26 Jun 3.1 05:12:15 10° NNE 05:17:18 74° ESE 05:18:39 49° S visible
26 Jun 5.9 19:12:46 10° SW 19:14:08 11° WSW 19:15:30 10° W visible
